Simultaneous Nadir Overpasses (SNOs) Predictions

Prediction of SNOs between METOP-C and LANDSAT-8 Satellite Orbit:

Table of predicted SNOs for the next 14.0 days since TLE Epoch: 2/27/2021
Index Date (METOP-C) Time (METOP-C) Lat,Lon (METOP-C) SZA (METOP-C ) Date (LANDSAT-8) Time (LANDSAT-8) Lat,Lon (LANDSAT-8) SZA (LANDSAT-8 ) Distance(km) Time Diff (sec)
1 03/01/2021 07:24:31 81.07, 107.62 90.15 03/01/2021 07:25:16 81.07, 107.52 90.16 1.67 45
2 03/01/2021 08:15:11 -81.10, -84.41 89.79 03/01/2021 08:14:42 -81.09, -84.57 89.82 2.91 29
3 03/04/2021 02:58:54 81.06, 173.80 89.06 03/04/2021 02:59:30 81.07, 173.89 89.09 1.56 36
4 03/04/2021 03:49:34 -81.09, -18.23 90.88 03/04/2021 03:48:56 -81.09, -18.17 90.89 1.09 38
5 03/06/2021 22:33:14 81.08,-119.29 88.05 03/06/2021 22:33:42 81.08,-119.42 88.05 2.28 28
6 03/06/2021 23:23:54 -81.11, 48.67 91.89 03/06/2021 23:23:08 -81.10, 48.54 91.92 2.13 46
7 03/09/2021 18:07:37 81.07, -53.14 86.94 03/09/2021 18:07:56 81.07, -53.13 86.95 0.23 19
8 03/09/2021 18:58:17 -81.10, 114.80 93.00 03/09/2021 18:57:22 -81.10, 114.86 93.02 1.09 55
9 03/12/2021 13:41:59 81.08, 13.37 85.87 03/12/2021 13:42:09 81.08, 13.49 85.89 2.16 10



Historial Predications of SNOs between METOP-C and LANDSAT-8
